Simultaneous Nadir Overpasses (SNOs) Predictions

Prediction of SNOs between FY3D and TERRA Satellite Orbit:

Table of predicted SNOs for the next 14.0 days since TLE Epoch: 8/29/2020
Index Date (FY3D) Time (FY3D) Lat,Lon (FY3D) SZA (FY3D ) Date (TERRA) Time (TERRA) Lat,Lon (TERRA) SZA (TERRA ) Distance(km) Time Diff (sec)
1 08/29/2020 08:35:49 -69.00,-129.61 120.25 08/29/2020 08:36:31 -69.01,-129.57 120.24 2.27 42
2 08/29/2020 09:26:32 68.83, 37.92 59.60 08/29/2020 09:25:59 68.85, 37.87 59.62 2.99 33
3 09/01/2020 00:52:12 -69.01, -13.71 119.28 09/01/2020 00:53:00 -69.01, -13.69 119.28 1.01 48
4 09/01/2020 01:42:55 68.84, 153.82 60.57 09/01/2020 01:42:28 68.85, 153.75 60.58 3.02 27
5 09/01/2020 02:33:20 -67.88, -37.61 120.38 09/01/2020 02:32:13 -67.90, -39.76 120.35 90.23 67
6 09/03/2020 17:08:35 -69.02, 102.18 118.29 09/03/2020 17:09:29 -69.01, 102.18 118.30 0.97 54
7 09/03/2020 17:59:19 68.91, -90.36 61.62 09/03/2020 17:58:56 68.90, -90.31 61.61 1.96 23
8 09/03/2020 18:49:47 -68.11, 78.02 119.18 09/03/2020 18:48:38 -68.12, 76.37 119.16 68.30 69
9 09/06/2020 09:24:57 -69.03,-141.92 117.28 09/06/2020 09:25:57 -69.00,-141.95 117.31 3.36 60
10 09/06/2020 10:15:40 68.87, 25.61 62.57 09/06/2020 10:15:24 68.89, 25.56 62.59 3.44 16
11 09/06/2020 11:06:12 -68.28,-166.29 118.01 09/06/2020 11:05:02 -68.34,-167.49 117.95 49.79 70
12 09/09/2020 01:41:20 -69.05, -26.03 116.26 09/09/2020 01:42:25 -69.05, -26.01 116.26 0.68 65
13 09/09/2020 02:32:04 68.94, 141.43 63.65 09/09/2020 02:31:52 68.93, 141.49 63.64 2.27 12
14 09/09/2020 03:22:39 -68.51, -50.67 116.77 09/09/2020 03:21:27 -68.55, -51.35 116.73 28.03 72
15 09/11/2020 17:57:43 -69.06, 89.87 115.23 09/11/2020 17:58:54 -69.03, 89.85 115.26 3.37 71
16 09/11/2020 18:48:26 68.90,-102.60 64.63 09/11/2020 18:48:21 68.91,-102.65 64.64 2.65 5
17 09/11/2020 19:39:05 -68.69, 65.01 115.58 09/11/2020 19:37:53 -68.70, 64.72 115.56 11.88 72
